FENGYUN 1C DEB, 30982

Orbit data source: Space-Track

FENGYUN 1C DEB, 30982 is space debris in SSO originally from a launch on Mon, 10 May 1999 UTC launched from the Taiyaun Space Center, China (TSC). Fengyun 1C debris stems from the Chinese weather satellite Fengyun-1C, which was intentionally destroyed by a Chinese anti-satellite missile in 2007. This event dramatically increased the amount of space debris, with thousands of trackable fragments posing hazards to satellites and human spaceflight. The Fengyun 1C debris cloud has become a focal point in discussions about space sustainability and the need for international regulations to prevent the creation of new debris.

Loading next visibility...
Identifier
30982, 1999-025BBY
Orbit
SSO
Country
Flag of CNCN / PRC
Related business
Manufacturer
Unknown
Mission
Spacecraft
Bus & Motor
Unknown
Mass
Unknown
Launch date (UTC)
1999-05-10 (27 years ago)
Launch vehicle
Unknown
Launch site
Taiyaun Space Center, China (TSC)
Object type
Payload
Rocket body
Debris
Shape & HBR
Unknown shape, 0.1 m
Radar Cross Section
Small (<0.1 m²)

Expand to show TLE details & history
Last TLE update: 2 days ago

TLE from 2 days ago
0 FENGYUN 1C DEB
1 30982U 99025BBY 26167.73462576  .00000900  00000-0  19232-3 0  9998
2 30982  98.2297 159.0292 0181703 100.1189  77.4699 14.51424050737510
Epoch: 2026-06-16T17:37Z
TLE epoch observation values (Epoch: 2026-06-16T17:37:51.665Z)
Latitude
0.24819°
Longitude
169.59723°
Altitude
698.198 km
Speed
7.521 km/s
True Right ascension
22h 36m 15s
True Declination
0° 14' 48"
Sunlit
Object was in daylight at epoch
Visualization orbit readout
Latitude
Unknown
Longitude
Unknown
Altitude
Unknown
Speed
Unknown
Apparent Right ascension
Unknown
Apparent Declination
Unknown
Sunlit
N/A
Visualization observer readout
Local Sidereal Time
08:52:03
Azimuth
Unknown
Elevation
Unknown
Doppler factor
Unknown
Orbital elements
Apogee altitude
847.034 km
Perigee altitude
589.153 km
Semi-major axis
7,096.231 km
Eccentricity
0.01817
Inclination
98.2297°
RAAN
159.0292°
Arg. of periapsis
100.1189°
True anomaly
79.5121°
Mean anomaly
77.4699°
Eccentric anomaly
78.49005°
Mean motion
3.63079 °/min
Orbital period
99.15 mins
BSTAR
0.00019232
Loading maneuver chart data...
Computing Atmospheric mass density...
Loading historical data...
Loading historical data...
Loading historical data...
Loading historical data...
Loading historical data...
Loading historical data...
Loading historical data...

Documentation

Showing up to 5 results
|